Friday Harbor, WA

11:39 AM PST on December 11, 2017 (GMT -0800)
Friday Harbor

Weather History for KFHR - March, 2013

Change the Weather History Date:

Friday, March 1, 2013

  Actual Average Record
Temperature  
Mean Temperature 49 °F -  
Max Temperature 54 °F 46 °F 54 °F (2005)
Min Temperature 44 °F 34 °F 27 °F (2007)
Degree Days  
Heating Degree Days 16    
Moisture  
Dew Point 47 °F    
Average Humidity 94    
Maximum Humidity 100    
Minimum Humidity 80    
Precipitation  
Precipitation 0.11 in - - ()
Sea Level Pressure  
Sea Level Pressure 30.25 in    
Wind  
Wind Speed 3 mph (East)    
Max Wind Speed 12 mph    
Max Gust Speed -    
Visibility 8 miles    
Events Rain    
Averages and records for this station are not official NWS values.
T = Trace of Precipitation, MM = Missing Value Source: NWS Daily Summary

Daily Weather History Graph

Daily Weather History Graph

Search for Another Location

Airport or City:

Trip Planner

Search our weather history database for the weather conditions in past years. The results will help you decide how hot, cold, wet, or windy it might be!

Date:

Astronomy

Mar. 01, 2013 Rise Set
Actual Time 6:52 AM PST 5:56 PM PST
Civil Twilight 6:21 AM PST 6:28 PM PST
Nautical Twilight 5:45 AM PST 7:04 PM PST
Astronomical Twilight 5:08 AM PST 7:40 PM PST
Moon 11:03 PM PST (3/1) 8:19 AM PST (3/1)
Length of Visible Light 12h 06m
Length of Day
11h 03m
Waning Gibbous, 82% of the Moon is Illuminated
Mar 1
Waning Gibbous
Mar 4
Last Quarter
Mar 11
New
Mar 19
First Quarter
Mar 27
Full

Hourly Weather History & Observations

Time (PST) Temp. Windchill Dew Point Humidity Pressure Visibility Wind Dir Wind Speed Gust Speed Precip Events Conditions
12:10 AM 44.6 °F 43.1 °F 44.6 °F 100% 30.24 in 1.0 mi East 3.5 mph - 0.01 in Rain Light Rain
12:17 AM 44.6 °F - 44.6 °F 100% 30.24 in 1.2 mi Calm Calm - 0.01 in Rain Light Rain
12:31 AM 44.6 °F - 44.6 °F 100% 30.24 in 2.5 mi Calm Calm - 0.02 in Rain Light Rain
12:36 AM 44.6 °F - 44.6 °F 100% 30.25 in 4.0 mi Calm Calm - 0.02 in Rain Light Rain
12:53 AM 45.0 °F 41.2 °F 45.0 °F 100% 30.27 in 4.0 mi WSW 6.9 mph - 0.03 in Rain Light Rain
1:53 AM 46.0 °F 42.5 °F 45.0 °F 96% 30.25 in 10.0 mi ESE 6.9 mph - 0.02 in Rain Light Rain
2:22 AM 46.4 °F - 44.6 °F 93% 30.25 in 10.0 mi Calm Calm - 0.00 in   Overcast
2:53 AM 46.0 °F 43.9 °F 45.0 °F 96% 30.25 in 10.0 mi SE 4.6 mph - 0.00 in   Overcast
3:04 AM 46.4 °F 45.2 °F 46.4 °F 100% 30.24 in 10.0 mi SE 3.5 mph - N/A   Overcast
3:53 AM 46.9 °F - 46.0 °F 97% 30.24 in 10.0 mi ESE 3.5 mph - N/A   Overcast
4:19 AM 48.2 °F - 46.4 °F 93% 30.23 in 10.0 mi ESE 6.9 mph - N/A   Overcast
4:53 AM 48.0 °F - 46.9 °F 96% 30.24 in 10.0 mi ESE 6.9 mph - N/A   Overcast
5:53 AM 48.0 °F - 48.0 °F 100% 30.25 in 10.0 mi SE 3.5 mph - 0.00 in Rain Light Rain
6:22 AM 48.2 °F - 48.2 °F 100% 30.24 in 10.0 mi SE 3.5 mph - 0.00 in Rain Light Rain
6:53 AM 46.9 °F - 46.9 °F 100% 30.24 in 10.0 mi Calm Calm - 0.00 in   Overcast
7:32 AM 46.4 °F 45.2 °F 46.4 °F 100% 30.26 in 10.0 mi East 3.5 mph - 0.00 in Rain Light Rain
7:53 AM 46.9 °F - 46.0 °F 97% 30.26 in 10.0 mi ESE 3.5 mph - 0.00 in   Mostly Cloudy
8:53 AM 48.0 °F - 46.9 °F 96% 30.27 in 10.0 mi Calm Calm - N/A   Mostly Cloudy
9:53 AM 48.9 °F - 46.9 °F 93% 30.27 in 10.0 mi SSE 8.1 mph - N/A   Mostly Cloudy
10:53 AM 52.0 °F - 48.0 °F 86% 30.27 in 10.0 mi ESE 11.5 mph - N/A   Mostly Cloudy
11:53 AM 52.0 °F - 46.9 °F 83% 30.27 in 10.0 mi ESE 9.2 mph - N/A   Overcast
12:53 PM 54.0 °F - 48.0 °F 80% 30.25 in 10.0 mi SE 9.2 mph - N/A   Scattered Clouds
1:53 PM 53.1 °F - 46.9 °F 80% 30.25 in 10.0 mi SE 8.1 mph - N/A   Scattered Clouds
2:53 PM 53.1 °F - 46.9 °F 80% 30.24 in 10.0 mi East 6.9 mph - N/A   Mostly Cloudy
3:53 PM 53.1 °F - 46.9 °F 80% 30.25 in 10.0 mi Variable 3.5 mph - N/A   Overcast
4:53 PM 51.1 °F - 46.9 °F 86% 30.24 in 10.0 mi ESE 3.5 mph - N/A   Overcast
5:53 PM 51.1 °F - 46.9 °F 86% 30.25 in 10.0 mi Calm Calm - N/A   Overcast
6:33 PM 50.0 °F - 48.2 °F 94% 30.24 in 10.0 mi North 3.5 mph - N/A   Overcast
6:44 PM 50.0 °F - 48.2 °F 94% 30.25 in 10.0 mi Calm Calm - N/A   Overcast
6:53 PM 50.0 °F - 48.0 °F 93% 30.25 in 10.0 mi Calm Calm - N/A   Overcast
7:53 PM 50.0 °F - 48.0 °F 93% 30.25 in 10.0 mi NNW 3.5 mph - N/A   Overcast
8:53 PM 48.9 °F - 48.0 °F 97% 30.25 in 4.0 mi Calm Calm - 0.02 in Rain Light Rain
9:53 PM 48.0 °F - 48.0 °F 100% 30.25 in 7.0 mi Calm Calm - 0.00 in Rain Light Rain
10:38 PM 48.2 °F - 48.2 °F 100% 30.26 in 4.0 mi Calm Calm - 0.02 in Rain Light Rain
10:53 PM 48.0 °F - 46.9 °F 96% 30.25 in 4.0 mi North 3.5 mph - 0.02 in Rain Light Rain
11:05 PM 46.4 °F 45.2 °F 46.4 °F 100% 30.25 in 5.0 mi North 3.5 mph - 0.00 in Rain Light Rain
11:16 PM 46.4 °F 45.2 °F 46.4 °F 100% 30.25 in 5.0 mi NE 3.5 mph - 0.01 in Rain Light Rain
11:32 PM 46.4 °F 45.2 °F 46.4 °F 100% 30.25 in 5.0 mi NE 3.5 mph - 0.01 in Rain Light Rain
11:53 PM 46.9 °F - 46.9 °F 100% 30.24 in 4.0 mi NNE 3.5 mph - 0.02 in Rain Light Rain